[[{"header":{"parameterUnit":"m.s-1","parameterCategory":1,"la1":30.2991,"la2":30.254,"lo1":-89.0895,"lo2":-89.0444,"dy":0.0017,"dx":0.0017,"nx":28,"ny":28,"refTime":"2025-01-20T03:00:00:Z","depth":0,"parameterNumber":2,"parameterNumberName":"U-component_of_WINDS"},"data":[0,0,0,0,0,0,0,0,0,0,0,0,0,0,0,0,0,0,0,0,0,0,0,0,0,0,0,0,0,0,0,0,0,0,0,0,0,0,0,0,0,0,0,0,0,0,0,0,0,0,0,0,0,0,0,0,0,0,-3.2499,-3.25,0,-3.2569,-3.2569,-3.257,-3.2494,-3.2491,-3.2488,-3.2486,-3.2558,-3.2562,-3.2567,0,0,0,0,0,0,0,0,0,0,0,0,0,-3.23,-3.2304,-3.2499,-3.25,-3.2501,-3.2568,-3.2569,-3.257,-3.2495,-3.2491,-3.2488,-3.2484,-3.2556,-3.2562,-3.2567,0,0,0,0,0,0,0,0,0,0,0,0,0,-3.238,-3.2306,-3.2499,-3.2471,-3.2469,-3.2568,-3.2569,-3.2571,-3.2495,-3.2491,-3.2487,-3.2483,-3.2555,-3.2561,-3.2568,-3.2698,0,0,-3.2589,-3.2592,0,0,0,0,0,0,0,0,-3.2376,-3.2387,-3.2474,-3.2473,-3.2471,-3.2518,-3.2526,-3.2613,-3.2497,-3.2486,-3.2486,-3.2481,-3.2548,-3.2556,-3.2578,-3.2702,-3.2705,-3.259,-3.2594,-3.2597,-3.2599,0,0,0,0,0,0,0,-3.237,-3.2384,-3.2526,-3.2476,-3.2474,-3.2455,-3.2462,-3.2542,-3.2541,-3.2486,-3.2481,-3.249,-3.2547,-3.2572,-3.2579,-3.2706,-3.259,-3.2596,-3.26,-3.2603,-3.2937,-3.2942,0,0,0,0,0,0,-3.2368,-3.238,-3.2524,-3.2529,-3.2412,-3.2462,-3.2469,-3.2508,-3.2539,-3.254,-3.2494,-3.2486,-3.2562,-3.2571,-3.2582,-3.2735,-3.2597,-3.2604,-3.2608,-3.2933,-3.2938,-3.2943,0,0,0,0,0,0,-3.2364,-3.2381,-3.2521,-3.2453,-3.2469,-3.247,-3.2514,-3.2511,-3.2536,-3.2545,-3.2544,-3.252,-3.2559,-3.2572,-3.2669,-3.2736,-3.2607,-3.2613,-3.2927,-3.2934,-3.2941,-3.3043,0,0,0,0,0,0,-3.2358,-3.238,-3.243,-3.2454,-3.2473,-3.2609,-3.2518,-3.2516,-3.2548,-3.2539,-3.2569,-3.257,-3.2556,-3.2659,-3.2676,-3.2743,-3.2619,-3.2921,-3.293,-3.2939,-3.3033,-3.3052,-3.3068,0,0,0,0,0,-3.2352,-3.2457,-3.2433,-3.2451,-3.2535,-3.2613,-3.2623,-3.2605,-3.2554,-3.2604,-3.2609,-3.2569,-3.2726,-3.267,-3.2688,-3.2759,-3.2917,-3.2928,-3.2938,-3.3025,-3.3049,-3.3068,0,0,0,0,0,0,-3.2441,-3.2459,-3.2433,-3.2549,-3.258,-3.26,-3.2662,-3.2631,-3.2677,-3.2666,-3.2642,-3.265,-3.2753,-3.2765,-3.2703,-3.2885,-3.2813,-3.2828,-3.2873,-3.2895,-3.2912,-3.2907,-3.2624,0,0,0,0,0,-3.2474,-3.2535,-3.2548,-3.2649,-3.2666,-3.2661,-3.2694,-3.2678,-3.2708,-3.2721,-3.2734,-3.2765,-3.2821,-3.2859,-3.2911,-3.3035,-3.3039,-3.3092,-3.3109,-3.3124,-3.3137,-3.3201,-3.3224,-3.2978,-3.2978,-3.2978,0,0,-3.2543,-3.2561,-3.2601,-3.2667,-3.2689,-3.2753,-3.2673,-3.2744,-3.279,-3.2732,-3.2824,-3.2835,-3.2868,-3.2979,-3.3028,-3.2992,-3.3206,-3.3137,-3.3149,-3.3154,-3.3215,-3.3238,-3.3259,-3.2985,-3.2984,-3.2983,0,0,-3.2702,-3.2722,-3.2807,-3.283,-3.2863,-3.2859,-3.288,-3.2904,-3.2909,-3.3001,-3.2958,-3.3013,-3.3111,-3.3135,-3.3161,-3.3327,-3.3292,-3.3345,-3.3437,-3.35,-3.3519,-3.3536,-3.3595,-3.3616,-3.3358,-3.3358,-3.3358,0,-3.2784,-3.2878,-3.2855,-3.2929,-3.2959,-3.2908,-3.2994,-3.3017,-3.3067,-3.3088,-3.3047,-3.3167,-3.3186,-3.3301,-3.3342,-3.3364,-3.3386,-3.3341,-3.3518,-3.3535,-3.3551,-3.3606,-3.3628,-3.3364,-3.3364,-3.3363,-3.3362,0,-3.2976,-3.3042,-3.3107,-3.3154,-3.3192,-3.3272,-3.3261,-3.3301,-3.3281,-3.3281,-3.3375,-3.3396,-3.345,-3.3476,-3.3458,-3.3589,-3.3565,-3.3522,-3.3449,-3.3581,-3.3632,-3.3653,-3.3373,-3.3371,-3.3369,-3.3368,0,0,-3.3194,-3.3227,-3.3251,-3.3271,-3.3303,-3.3354,-3.343,-3.3483,-3.3518,-3.3553,-3.3616,-3.3699,-3.3659,-3.3688,-3.3671,-3.3727,-3.3855,-3.3676,-3.3677,-3.3708,-3.3999,-3.4031,-3.4056,-3.3832,-3.3836,-3.3839,-3.3996,0,-3.3352,-3.3485,-3.3466,-3.3594,-3.3653,-3.3605,-3.3671,-3.3698,-3.37,-3.3751,-3.3753,-3.3811,-3.3754,-3.3771,-3.3824,-3.3829,-3.3913,-3.3817,-3.389,-3.3893,-3.3883,-3.4083,-3.4117,-3.4264,-3.4016,-3.4019,-3.4022,0,-3.3555,-3.3596,-3.3729,-3.375,-3.3775,-3.3835,-3.3881,-3.393,-3.3959,-3.3956,-3.3988,-3.3961,-3.4037,-3.3963,-3.4067,-3.4002,-3.403,-3.4037,-3.4042,-3.4048,-3.3965,-3.4093,-3.4311,-3.4333,-3.4053,-3.4051,-3.4048,0,-3.3699,-3.3788,-3.3878,-3.3897,-3.3925,-3.3968,-3.3981,-3.4006,-3.4038,-3.4078,-3.4099,-3.4148,-3.4175,-3.4213,-3.42,-3.4147,-3.4306,-3.4231,-3.4305,-3.4306,-3.4341,-3.4339,-3.4565,-3.4361,-3.436,-3.436,-3.436,0,-3.3877,-3.396,-3.3943,-3.3999,-3.409,-3.4068,-3.4159,-3.4166,-3.4188,-3.4244,-3.4205,-3.4259,-3.4238,-3.429,-3.428,-3.4367,-3.438,-3.4379,-3.4375,-3.4382,-3.4382,-3.44,-3.439,-3.4366,-3.4365,-3.4363,-3.4362,0,-3.4054,-3.4046,-3.4141,-3.4159,-3.4165,-3.4231,-3.4246,-3.4298,-3.4296,-3.4367,-3.4383,-3.438,-3.4439,-3.443,-3.4495,-3.4488,-3.4597,-3.4581,-3.4587,-3.4583,-3.4657,-3.465,-3.4903,-3.4935,-3.471,-3.4713,-3.4714,0,-3.4168,-3.423,-3.4254,-3.4288,-3.4305,-3.4361,-3.4393,-3.4373,-3.4408,-3.4445,-3.4492,-3.4547,-3.459,-3.4687,-3.4691,-3.474,-3.4725,-3.481,-3.4732,-3.4736,-3.4725,-3.4721,-3.4726,-3.4825,-3.4828,-3.483,-3.4832,0,-3.4371,-3.4363,-3.4411,-3.4458,-3.4497,-3.4533,-3.4565,-3.4595,-3.4578,-3.4619,-3.4678,-3.4712,-3.4778,-3.4833,-3.4879,-3.4892,-3.4859,-3.4856,-3.4876,-3.4883,-3.4884,-3.4883,-3.4628,-3.485,-3.4849,-3.4847,-3.4846,-3.4845,-3.4519,-3.4571,-3.4596,-3.465,-3.4672,-3.4702,-3.4751,-3.4755,-3.4804,-3.4856,-3.4841,-3.4908,-3.4933,-3.4991,-3.501,-3.5062,-3.503,-3.5059,-3.5066,-3.5073,-3.5082,-3.4876,-3.507,-3.507,-3.5069,-3.5069,-3.5068,0,-3.4719,-3.4731,-3.4782,-3.4827,-3.4869,-3.4834,-3.4867,-3.4905,-3.4964,-3.499,-3.5033,-3.51,-3.5153,-3.5161,-3.521,-3.525,-3.5236,-3.5264,-3.526,-3.5264,-3.5108,-3.5085,-3.5274,-3.5274,-3.5274,-3.5274,-3.5274,-3.5274,-3.4828,-3.4914,-3.4909,-3.5006,-3.5018,-3.5083,-3.5105,-3.5132,-3.5153,-3.523,-3.5273,-3.5277,-3.5296,-3.5346,-3.5392,-3.5393,-3.5413,-3.5446,-3.5441,-3.5295,-3.5275,-3.5255,-3.5234,-3.5451,-3.5451,-3.5593,-3.5594,-3.5595]},{"header":{"parameterUnit":"m.s-1","parameterCategory":1,"la1":30.2991,"la2":30.254,"lo1":-89.0895,"lo2":-89.0444,"dy":0.0017,"dx":0.0017,"nx":28,"ny":28,"refTime":"2025-01-20T03:00:00:Z","depth":0,"parameterNumber":3,"parameterNumberName":"V-component_of_WINDS"},"data":[0,0,0,0,0,0,0,0,0,0,0,0,0,0,0,0,0,0,0,0,0,0,0,0,0,0,0,0,0,0,0,0,0,0,0,0,0,0,0,0,0,0,0,0,0,0,0,0,0,0,0,0,0,0,0,0,0,0,-4.9998,-4.9999,0,-5.0085,-5.0086,-5.0087,-5.0035,-5.0033,-5.003,-5.0028,-5.0113,-5.0118,-5.0122,0,0,0,0,0,0,0,0,0,0,0,0,0,-4.9782,-4.9786,-4.9998,-4.9999,-5.0,-5.0085,-5.0086,-5.0087,-5.0036,-5.0033,-5.003,-5.0027,-5.0112,-5.0117,-5.0123,0,0,0,0,0,0,0,0,0,0,0,0,0,-4.9873,-4.9787,-4.9998,-4.9985,-4.9984,-5.0085,-5.0086,-5.0088,-5.0036,-5.0032,-5.0029,-5.0025,-5.011,-5.0117,-5.0124,-5.0241,0,0,-5.0145,-5.0148,0,0,0,0,0,0,0,0,-4.9868,-4.9881,-4.9985,-4.9986,-4.9986,-5.0045,-5.0041,-5.0139,-5.0037,-5.0016,-5.0028,-5.0023,-5.0094,-5.0102,-5.0126,-5.0245,-5.0248,-5.0145,-5.0149,-5.0152,-5.0154,0,0,0,0,0,0,0,-4.9861,-4.9877,-5.0032,-4.9987,-4.9987,-4.9973,-4.9981,-5.0059,-5.0075,-5.0018,-5.0014,-5.0026,-5.0093,-5.0119,-5.0128,-5.025,-5.0145,-5.0151,-5.0155,-5.0158,-5.0465,-5.0469,0,0,0,0,0,0,-4.9857,-4.9872,-5.0029,-5.0035,-4.9916,-4.998,-4.9989,-5.003,-5.0074,-5.0077,-5.0029,-5.0023,-5.011,-5.012,-5.013,-5.0268,-5.0152,-5.0159,-5.0163,-5.0461,-5.0466,-5.0471,0,0,0,0,0,0,-4.9852,-4.9871,-5.0026,-4.9952,-4.9971,-4.9987,-5.0033,-5.0034,-5.006,-5.0082,-5.0084,-5.0053,-5.0107,-5.0121,-5.0213,-5.0271,-5.0162,-5.0168,-5.0457,-5.0463,-5.0468,-5.0546,0,0,0,0,0,0,-4.9846,-4.987,-4.9916,-4.9954,-4.9975,-5.0109,-5.0037,-5.0038,-5.0073,-5.0066,-5.0106,-5.0109,-5.0105,-5.0203,-5.022,-5.0278,-5.0174,-5.0451,-5.0459,-5.0467,-5.0539,-5.0554,-5.0568,0,0,0,0,0,-4.9839,-4.9934,-4.9919,-4.9938,-5.0033,-5.0113,-5.0124,-5.012,-5.0078,-5.0123,-5.0136,-5.0107,-5.0262,-5.0213,-5.0232,-5.0293,-5.0448,-5.0457,-5.0466,-5.0532,-5.0551,-5.0567,0,0,0,0,0,0,-4.9902,-4.9939,-4.9922,-5.0033,-5.007,-5.0104,-5.0161,-5.014,-5.0189,-5.0181,-5.0171,-5.0181,-5.0277,-5.0294,-5.0239,-5.0407,-5.0348,-5.0361,-5.0392,-5.041,-5.0424,-5.0417,-5.0179,0,0,0,0,0,-4.9929,-4.9992,-5.002,-5.0115,-5.0135,-5.0145,-5.0179,-5.0172,-5.0209,-5.0225,-5.0245,-5.0281,-5.0337,-5.0375,-5.0428,-5.0541,-5.0547,-5.0592,-5.0606,-5.0618,-5.0629,-5.0687,-5.0707,-5.05,-5.05,-5.05,0,0,-4.9985,-5.0013,-5.0053,-5.0128,-5.0156,-5.0219,-5.0158,-5.0228,-5.0274,-5.0235,-5.0323,-5.0339,-5.0379,-5.0482,-5.0528,-5.0499,-5.0688,-5.063,-5.0639,-5.0644,-5.0699,-5.0718,-5.0736,-5.0507,-5.0505,-5.0504,0,0,-5.0119,-5.0147,-5.0228,-5.0258,-5.0301,-5.0307,-5.0326,-5.0363,-5.0372,-5.0461,-5.0432,-5.0486,-5.0584,-5.0613,-5.064,-5.0784,-5.0758,-5.0801,-5.0876,-5.0933,-5.0949,-5.0964,-5.1013,-5.1031,-5.0812,-5.0813,-5.0813,0,-5.0182,-5.0278,-5.0272,-5.0344,-5.0377,-5.0345,-5.0426,-5.0454,-5.0512,-5.0535,-5.0502,-5.0623,-5.0648,-5.0755,-5.079,-5.0814,-5.0834,-5.0796,-5.0948,-5.0962,-5.0975,-5.1022,-5.1041,-5.0817,-5.0817,-5.0816,-5.0816,0,-5.0353,-5.042,-5.048,-5.0537,-5.0577,-5.0653,-5.0657,-5.0698,-5.0687,-5.0695,-5.0785,-5.0813,-5.0871,-5.0896,-5.0886,-5.1002,-5.0982,-5.0949,-5.089,-5.1,-5.1043,-5.1061,-5.0824,-5.0823,-5.0821,-5.082,0,0,-5.0529,-5.0582,-5.0604,-5.0628,-5.0673,-5.0724,-5.0797,-5.0854,-5.0888,-5.0929,-5.0989,-5.1072,-5.1041,-5.1072,-5.1065,-5.1115,-5.1224,-5.1076,-5.1076,-5.11,-5.135,-5.1374,-5.1395,-5.1208,-5.1211,-5.1214,-5.1346,0,-5.0664,-5.0794,-5.079,-5.091,-5.097,-5.094,-5.1003,-5.1037,-5.1046,-5.1097,-5.1107,-5.1166,-5.1122,-5.114,-5.1189,-5.1201,-5.1274,-5.1191,-5.1261,-5.1264,-5.125,-5.1418,-5.1443,-5.1566,-5.1363,-5.1366,-5.1368,0,-5.0839,-5.0886,-5.1012,-5.1046,-5.1071,-5.1129,-5.1179,-5.123,-5.1266,-5.1269,-5.1303,-5.1288,-5.136,-5.13,-5.1398,-5.1342,-5.137,-5.138,-5.1384,-5.1389,-5.1322,-5.1425,-5.1606,-5.1624,-5.1395,-5.1393,-5.1391,0,-5.0952,-5.1047,-5.1134,-5.1157,-5.1199,-5.124,-5.1259,-5.1292,-5.1325,-5.1369,-5.1391,-5.1442,-5.147,-5.151,-5.1508,-5.1464,-5.1606,-5.1546,-5.1609,-5.1609,-5.1639,-5.1637,-5.1825,-5.1661,-5.166,-5.166,-5.166,0,-5.1103,-5.118,-5.1185,-5.1239,-5.1324,-5.1318,-5.1402,-5.1417,-5.1446,-5.15,-5.1478,-5.1529,-5.1524,-5.1575,-5.1573,-5.1653,-5.1667,-5.167,-5.1668,-5.1671,-5.167,-5.1688,-5.1678,-5.1665,-5.1664,-5.1663,-5.1662,0,-5.1243,-5.125,-5.1342,-5.1375,-5.1385,-5.1446,-5.1473,-5.1522,-5.153,-5.1598,-5.1614,-5.1625,-5.1684,-5.1686,-5.1754,-5.1752,-5.1849,-5.1839,-5.1837,-5.1835,-5.1896,-5.189,-5.2101,-5.2128,-5.1948,-5.195,-5.1951,0,-5.1337,-5.1396,-5.1435,-5.147,-5.1492,-5.1549,-5.1583,-5.158,-5.1616,-5.1661,-5.1704,-5.1761,-5.1806,-5.19,-5.1913,-5.1964,-5.1954,-5.2024,-5.1961,-5.1961,-5.1952,-5.1948,-5.1952,-5.2036,-5.2038,-5.204,-5.2041,0,-5.1504,-5.1504,-5.1555,-5.1607,-5.1649,-5.1689,-5.1727,-5.1757,-5.1757,-5.1798,-5.1858,-5.1893,-5.1962,-5.2017,-5.2066,-5.2084,-5.2062,-5.2061,-5.2078,-5.208,-5.2076,-5.2077,-5.1869,-5.2056,-5.2054,-5.2053,-5.2052,-5.2052,-5.1623,-5.1673,-5.1707,-5.1764,-5.1792,-5.1828,-5.1875,-5.1889,-5.1939,-5.1995,-5.1989,-5.2055,-5.2088,-5.2151,-5.2173,-5.2223,-5.2199,-5.2224,-5.223,-5.2235,-5.2241,-5.207,-5.2232,-5.2232,-5.2232,-5.2231,-5.2231,0,-5.1786,-5.1806,-5.1859,-5.1912,-5.1957,-5.1934,-5.1973,-5.2011,-5.207,-5.2103,-5.2147,-5.2215,-5.2269,-5.2286,-5.2337,-5.2374,-5.2365,-5.2387,-5.2383,-5.2387,-5.2261,-5.2241,-5.2393,-5.2393,-5.2393,-5.2393,-5.2393,-5.2393,-5.1876,-5.1959,-5.1963,-5.2058,-5.2078,-5.2143,-5.2168,-5.2199,-5.2225,-5.2302,-5.2347,-5.2358,-5.2384,-5.2436,-5.2484,-5.2487,-5.2506,-5.2532,-5.2531,-5.2413,-5.2396,-5.2381,-5.2361,-5.2537,-5.2537,-5.2653,-5.2654,-5.2655]}]]